FW6725 Weather Reports


Display with metric or nautical units.
time (UTC)temp
F
wind
direction
speed
MPH
gust
MPH
rain 1hr
in
rain 24hr
in
rain mn
in
humidity
%
barometer
mb
20260505224028 35 264 6.0 9.0 0.00 0.00 0.00 74 1007.8
20260505223027 35 265 5.0 9.0 0.00 0.00 0.00 73 1007.8
20260505222046 36 270 4.0 9.0 0.00 0.00 0.00 70 1007.8
20260505221024 36 272 5.0 11.0 0.00 0.00 0.00 70 1007.7
20260505220024 36 270 5.0 9.0 0.00 0.00 0.00 70 1007.7
20260505215022 37 269 7.0 11.0 0.00 0.00 0.00 69 1007.6
20260505214021 37 265 7.0 11.0 0.00 0.00 0.00 68 1007.5
20260505213021 37 265 7.0 11.0 0.00 0.00 0.00 68 1007.5
20260505212020 37 262 8.0 12.0 0.00 0.01 0.00 67 1007.4
20260505211020 37 262 8.0 12.0 0.00 0.03 0.00 66 1007.3
20260505210018 38 260 7.0 11.0 0.00 0.04 0.00 66 1007.2
20260505205017 38 258 7.0 10.0 0.00 0.04 0.00 65 1007.1
20260505204046 38 259 7.0 9.0 0.00 0.04 0.00 63 1006.9
20260505203046 39 260 7.0 11.0 0.00 0.04 0.00 61 1006.8
20260505202044 39 261 7.0 10.0 0.00 0.04 0.00 60 1006.8
20260505201043 39 262 7.0 11.0 0.00 0.04 0.00 59 1006.6
20260505200042 39 263 7.0 11.0 0.00 0.04 0.00 58 1006.5
20260505195042 40 259 7.0 11.0 0.00 0.04 0.00 58 1006.5
20260505194041 40 260 7.0 10.0 0.00 0.04 0.00 57 1006.5
20260505193040 40 260 7.0 10.0 0.00 0.04 0.00 56 1006.5
20260505192039 41 264 6.0 12.0 0.00 0.04 0.00 54 1006.4
20260505191037 41 265 6.0 11.0 0.00 0.04 0.00 53 1006.3
20260505190035 41 267 7.0 13.0 0.00 0.04 0.00 52 1006.2
20260505185035 42 271 8.0 14.0 0.00 0.04 0.00 51 1006.2
20260505184034 42 272 8.0 15.0 0.00 0.04 0.00 50 1006.0
20260505183033 43 263 8.0 13.0 0.00 0.04 0.00 50 1005.9
20260505182036 43 260 9.0 16.0 0.00 0.04 0.00 49 1005.8
20260505181031 43 256 9.0 14.0 0.00 0.04 0.00 48 1005.6
20260505180032 44 253 9.0 17.0 0.00 0.04 0.00 47 1005.5
20260505175030 44 249 10.0 16.0 0.00 0.04 0.00 44 1005.5
20260505174028 44 242 11.0 17.0 0.00 0.04 0.00 43 1005.4
20260505173027 45 249 11.0 18.0 0.00 0.04 0.00 41 1005.3
20260505172028 45 248 12.0 18.0 0.00 0.04 0.00 41 1005.2
20260505171025 46 246 11.0 18.0 0.00 0.04 0.00 40 1005.2
20260505170025 46 251 12.0 19.0 0.00 0.04 0.00 41 1005.2
20260505165024 47 250 13.0 24.0 0.00 0.04 0.00 39 1005.2
20260505164022 47 241 14.0 23.0 0.00 0.04 0.00 38 1005.1
20260505163022 47 241 13.0 22.0 0.00 0.04 0.00 38 1005.1
20260505162021 46 252 13.0 20.0 0.00 0.04 0.00 39 1005.0
20260505161020 47 253 12.0 21.0 0.00 0.04 0.00 38 1004.9
20260505153015 47 252 12.0 21.0 0.00 0.04 0.00 39 1004.7
20260505152046 47 247 14.0 20.0 0.00 0.04 0.00 39 1004.6
20260505151104 49 253 13.0 21.0 0.00 0.04 0.00 36 1004.6
20260505125031 50 258 10.0 19.0 0.00 0.04 0.00 39 1003.9
20260505124110 49 270 10.0 17.0 0.00 0.04 0.00 40 1003.9
20260505123028 49 274 8.0 17.0 0.00 0.04 0.00 41 1003.9
20260505122029 50 300 9.0 16.0 0.00 0.04 0.00 41 1003.7
20260505121027 51 263 9.0 16.0 0.00 0.04 0.00 39 1003.7
20260505120026 50 269 9.0 19.0 0.00 0.04 0.00 40 1003.6
20260505115024 48 274 10.0 19.0 0.00 0.04 0.00 41 1003.6
20260505114023 50 267 9.0 15.0 0.00 0.04 0.00 47 1003.5
20260505113024 48 290 9.0 18.0 0.00 0.04 0.00 47 1003.4
20260505112022 49 298 7.0 16.0 0.00 0.04 0.00 50 1003.4
20260505111021 47 289 9.0 19.0 0.00 0.05 0.00 53 1003.4
20260505102106 49 279 6.0 17.0 0.00 0.09 0.00 50 1002.6
20260505101044 49 299 9.0 17.0 0.00 0.10 0.00 52 1002.5
20260505100044 49 295 10.0 18.0 0.00 0.11 0.00 52 1002.4
20260505095104 48 300 10.0 22.0 0.00 0.12 0.00 56 1002.3
20260505094046 48 286 11.0 23.0 0.00 0.13 0.00 54 1002.1
20260505093041 50 272 12.0 23.0 0.00 0.14 0.00 47 1002.0
20260505092041 50 277 12.0 23.0 0.00 0.15 0.00 51 1001.8
20260505091100 49 288 10.0 21.0 0.00 0.15 0.00 54 1001.6
20260505090038 49 280 10.0 21.0 0.00 0.16 0.00 52 1001.4
20260505085037 51 260 14.0 23.0 0.00 0.17 0.00 50 1001.3
20260505084058 50 267 12.0 22.0 0.00 0.17 0.00 53 1001.1
20260505083036 50 262 10.0 20.0 0.00 0.17 0.00 56 1001.0
20260505082035 49 272 11.0 20.0 0.00 0.17 0.00 61 1000.9
20260505081033 50 257 12.0 20.0 0.00 0.17 0.00 58 1000.7
20260505080033 50 260 12.0 23.0 0.00 0.17 0.00 58 1000.6
20260505075031 51 247 13.0 21.0 0.00 0.17 0.00 58 1000.5
20260505074033 50 248 12.0 19.0 0.00 0.17 0.00 58 1000.4
20260505073031 50 250 14.0 23.0 0.00 0.17 0.00 58 1000.3
20260505072030 51 250 12.0 22.0 0.00 0.17 0.00 57 1000.2
20260505071029 51 244 13.0 20.0 0.00 0.17 0.00 59 1000.1
20260505070027 50 233 11.0 20.0 0.00 0.17 0.00 60 1000.1
20260505065026 50 237 10.0 16.0 0.00 0.17 0.00 61 1000.0
20260505064026 50 239 11.0 19.0 0.00 0.17 0.00 62 999.9
20260505063025 49 235 12.0 19.0 0.00 0.17 0.00 63 999.8
20260505062023 49 239 12.0 19.0 0.00 0.17 0.00 64 999.8
20260505061022 48 242 13.0 22.0 0.00 0.17 0.00 65 999.8
20260505060021 48 235 14.0 19.0 0.00 0.17 0.00 66 999.8
20260505055022 48 235 12.0 20.0 0.00 0.17 0.00 68 999.7
20260505054021 47 222 12.0 18.0 0.00 0.17 0.00 68 999.8
20260505053019 47 225 13.0 19.0 0.00 0.17 0.00 71 999.8
20260505052038 46 216 12.0 19.0 0.00 0.17 0.00 73 999.8
20260505051038 45 205 10.0 16.0 0.00 0.17 0.00 78 999.7
20260505041042 40 187 9.0 14.0 0.00 0.17 0.00 95 999.9
20260505040040 40 189 8.0 14.0 0.00 0.17 0.00 95 1000.0
20260505035040 40 190 10.0 16.0 0.00 0.17 0.00 97 999.9
20260505034040 40 185 9.0 15.0 0.00 0.17 0.00 97 999.8
20260505033038 40 186 9.0 15.0 0.00 0.17 0.00 98 999.8
20260505032037 40 177 8.0 15.0 0.00 0.17 0.00 98 999.9
20260505031036 40 171 8.0 14.0 0.00 0.17 0.00 98 999.9
20260505030035 40 171 8.0 14.0 0.00 0.17 0.00 98 1000.1
20260505025114 40 164 8.0 13.0 0.00 0.17 0.00 97 1000.2
20260505024033 40 174 7.0 13.0 0.00 0.17 0.00 97 1000.2
20260505023033 40 163 7.0 12.0 0.00 0.17 0.00 97 1000.2
20260505022032 40 149 6.0 12.0 0.00 0.17 0.00 97 1000.3
20260505021031 40 151 6.0 9.0 0.00 0.17 0.00 97 1000.3
20260505020030 40 155 5.0 9.0 0.00 0.17 0.00 97 1000.5
20260505015028 41 163 5.0 9.0 0.00 0.17 0.00 97 1000.6
20260505014027 41 170 6.0 10.0 0.00 0.17 0.00 96 1000.8
20260505013027 41 189 6.0 10.0 0.00 0.17 0.00 96 1001.0
20260505012026 42 210 8.0 12.0 0.00 0.17 0.00 94 1001.2
20260505011025 42 213 8.0 13.0 0.00 0.17 0.00 94 1001.4
20260505010024 42 219 8.0 13.0 0.00 0.17 0.00 95 1001.3
20260505005042 42 229 7.0 11.0 0.00 0.17 0.00 95 1001.3
20260505004023 42 229 7.0 10.0 0.00 0.17 0.00 94 1001.4
20260505003021 42 232 7.0 11.0 0.00 0.17 0.00 95 1001.4
20260505002020 43 219 7.0 11.0 0.00 0.17 0.00 94 1001.2
20260505001019 43 216 7.0 10.0 0.00 0.17 0.00 95 1001.2
20260505000017 43 224 7.0 11.0 0.00 0.17 0.00 94 1001.2
20260504235056 43 226 8.0 11.0 0.00 0.17 0.17 94 1001.3
20260504234017 43 240 7.0 11.0 0.00 0.17 0.17 94 1001.4
20260504233046 43 246 8.0 13.0 0.00 0.17 0.17 95 1001.5
20260504232045 43 244 8.0 13.0 0.00 0.17 0.17 95 1001.5
20260504231043 43 237 6.0 10.0 0.00 0.17 0.17 95 1001.5
20260504230042 43 230 7.0 10.0 0.00 0.17 0.17 95 1001.4
20260504225041 43 236 9.0 13.0 0.00 0.17 0.17 95 1001.4